Погода в Тисуле

Россия / Кемеровская область (Кузбасс)     56°04′22″N   88°41′09″E
темп.,
°C
ветер,
м/с
пор.,
м/с
влажн.,
%
обл.,
%
осадки,
мм/ч
давл.,
гПа
погр.,
м
26 июля, пн
пн2601:00+18з2798100 0.0 1005145
04:00+17з2497100 0.0 100481
07:00+19з1291100 0.1 100497
10:00+22юв1182100 0.7 1003374
13:00+20зсз119574 4.1 100233
16:00+25ююз246950 0.9 1001981
19:00+24зсз127763 2.6 1000298
22:00+19ююз118838 0.8 99911
27 июля, вт
вт2701:00+18юз379651 3.9 999167
04:00+17зюз4109993 0.1 1001448
07:00+16з51098100 0.3 1002607
10:00+16з5887100 0.3 1005822
13:00+15з587968 0.4 1006681
16:00+15з6867100 0.0 10071124
19:00+14з4874100 0.0 1008975
22:00+12з378350 0.0 1009453
28 июля, ср
ср2801:00+9зюз38968 0.0 1010188
04:00+8з25975 0.0 101095
07:00+11зюз238384 0.0 1011151
10:00+16зсз23634 0.0 1010749
13:00+19з324972 0.1 10091870
16:00+19сз124998 0.0 10101814
19:00+16ссв2371100 0.1 1010154
22:00+14вюв0071100 0.0 101010
29 июля, чт
чт2901:00+14ююв117194 0.0 101110
04:00+11юз228413 0.0 101113
07:00+12юз237822 0.0 101197
10:00+17зюз235710 0.1 1011620
13:00+20з344122 0.1 10102152
16:00+20з244591 0.0 10111663
19:00+19юз115733 0.0 1010497
22:00+14ююв116472 0.0 101112
30 июля, пт
пт3001:00+11юв11736 0.0 101112
04:00+10юв117749 0.0 101111
07:00+13зюз0171100 0.0 101123
10:00+18ююв135649 0.0 1011546
13:00+20ю12516 0.4 10111202
16:00+21зсз34492 0.3 10121590
19:00+19зюз126755 0.4 101269
22:00+16зюз237237 0.0 101454